greek

ΠΛΗΡΟΦΟΡΙΕΣ ΚΑΙΡΟΥ

english


LGTT 151000Z 06008G19KT CAVOK 28/09 Q1015
TAF LGTT 151000Z 1512/1521 04012KT 9999 FEW025 TEMPO 1512/1514 04012G22KT BECMG 1516/1518 VRB03KT

 Print LGTT local weather
 EMY AVIATION
 EMY LGTT
 Forecast LGTT
 EMY LGMG
 EMY LGEL
 EMY LGTG
 EMY LGAV
 EMY LGAT
 Latest METAR Reports (OGIMET)
 Latest TAF Reports (OGIMET)
 Greece Forecast
 www.windyty.com
 www.meteo.gr
 SAT 24h
 UK Met Office
 www.kifissiameteo.gr
 forecast.uoa.gr
 www.ntua.gr/weather/
 www.autorouter.eu/gramet
 http://www.jetplan.com/jeppesen/

Στο τηλέφωνο 210-3533689 μπορείτε να πάρετε πληροφορίες για την πτήση σας σε οποιοδήποτε σημείο της χώρας.